sat.trackr.live / text

‹ back to catalog

STARLINK-30292

NORAD 57844 · 2023-141E

PAYLOAD ACTIVE UNKNOWN

§ Identity

Operator
Country
US
Launch date
2023-09-12
Launch site
AFWTR
Launch vehicle
Mass (kg)
RCS (m²)

Purposes: comms

External: N2YO · Heavens-Above · Gunter

§ Orbital elements

Epoch: 2026-05-25T02:37:08.666976Z

Period
94.11 min
Inclination
53.1611°
Eccentricity
0.0001107
Mean motion
15.30177938 rev/d
Perigee alt
474.5 km
Apogee alt
476.0 km
Semi-major
6,853.4 km
B*
-4.5775e-5
RAAN
288.7800°
Arg perigee
99.1961°
Mean anomaly
260.9165°
Rev number
15,203

§ Raw data

STARLINK-302921 57844U 23141E   26145.10912809 -.00001713  00000+0 -45775-4 0  99922 57844  53.1611 288.7800 0001107  99.1961 260.9165 15.30177938152038

JSON: /api/v1/satellites/57844 · /tle

For live sub-satellite position, see the globe view (requires WebGL).

§ Visibility from observer

Set your observer location to see the next 7 days of passes ≥ 10°. The values pass through the URL so the page stays shareable.

No JS? Fill the form by hand. The geolocation button needs JavaScript.